Baghdad,

11:36 AM +03 on June 28, 2017 (GMT +0300)
Baghdad

Weather History for KQTZ - March, 2013

Change the Weather History Date:

Saturday, March 2, 2013

  Actual Average Record
Temperature  
Mean Temperature 65 °F -  
Max Temperature 75 °F - - ()
Min Temperature 55 °F - - ()
Growing Degree Days 15 (Base 50)    
Moisture  
Dew Point 39 °F    
Average Humidity 41    
Maximum Humidity 55    
Minimum Humidity 20    
Precipitation  
Precipitation 0.00 in - - ()
Sea Level Pressure  
Sea Level Pressure 30.06 in    
Wind  
Wind Speed 3 mph ()    
Max Wind Speed 10 mph    
Max Gust Speed -    
Visibility 5.7 miles    
Events      
Averages and records for this station are not official NWS values.
T = Trace of Precipitation, MM = Missing Value Source: Averaged Metar Reports

Daily Weather History Graph

Daily Weather History Graph

Search for Another Location

Airport or City:

Trip Planner

Search our weather history database for the weather conditions in past years. The results will help you decide how hot, cold, wet, or windy it might be!

Date:

Astronomy

Mar. 02, 2013 Rise Set
Actual Time 6:30 AM +03 6:00 PM +03
Civil Twilight 6:05 AM +03 6:25 PM +03
Nautical Twilight 5:36 AM +03 6:54 PM +03
Astronomical Twilight 5:07 AM +03 7:23 PM +03
Moon 10:57 PM +03 (3/2) 8:59 AM +03 (3/2)
Length of Visible Light 12h 20m
Length of Day
11h 30m
Waning Gibbous, 77% of the Moon is Illuminated
Mar 2
Waning Gibbous
Mar 5
Last Quarter
Mar 11
New
Mar 19
First Quarter
Mar 27
Full

Hourly Weather History & Observations

Time (+03) Temp. Dew Point Humidity Pressure Visibility Wind Dir Wind Speed Gust Speed Precip Events Conditions
12:55 AM 59.0 °F 41.0 °F 51% 30.02 in 6.2 mi North 2.3 mph - N/A   Clear
1:55 AM 57.2 °F 41.0 °F 55% 30.01 in 6.2 mi North 3.5 mph - N/A   Clear
2:55 AM 55.4 °F 39.2 °F 54% 30.00 in 6.2 mi NE 2.3 mph - N/A   Clear
3:55 AM 55.4 °F 39.2 °F 54% 30.00 in 6.2 mi NE 2.3 mph - N/A   Clear
4:55 AM 55.4 °F 39.2 °F 54% 30.00 in 6.2 mi ENE 1.2 mph - N/A   Clear
5:55 AM 55.4 °F 39.2 °F 54% 30.02 in 6.2 mi ESE 1.2 mph - N/A   Clear
6:55 AM 55.4 °F 39.2 °F 54% 30.04 in 6.2 mi Calm Calm - N/A   Clear
7:55 AM 59.0 °F 41.0 °F 51% 30.04 in 3.7 mi Variable 3.5 mph - N/A   Smoke
8:55 AM 64.4 °F 41.0 °F 42% 30.05 in - East 2.3 mph - N/A   Smoke
9:55 AM 68.0 °F 41.0 °F 37% 30.06 in 1.7 mi Variable 4.6 mph - N/A   Smoke
10:55 AM 71.6 °F 33.8 °F 25% 30.06 in 2.5 mi Variable 5.8 mph - N/A   Smoke
11:55 AM 73.4 °F 30.2 °F 20% 30.06 in 6.2 mi Variable 4.6 mph - N/A   Partly Cloudy
12:55 PM 75.2 °F 41.0 °F 29% 30.04 in 6.2 mi Variable 4.6 mph - N/A   Clear
1:55 PM 73.4 °F 39.2 °F 29% 30.03 in 6.2 mi Variable 5.8 mph - N/A   Clear
2:55 PM 73.4 °F 39.2 °F 29% 30.03 in 6.2 mi NW 4.6 mph - N/A   Partly Cloudy
3:55 PM 73.4 °F 39.2 °F 29% 30.04 in 6.2 mi Variable 4.6 mph - N/A   Clear
4:55 PM 71.6 °F 39.2 °F 31% 30.05 in 6.2 mi SE 5.8 mph - N/A   Clear
5:55 PM 69.8 °F 39.2 °F 33% 30.06 in 6.2 mi WNW 4.6 mph - N/A   Clear
6:55 PM 64.4 °F 39.2 °F 40% 30.09 in 6.2 mi NNE 2.3 mph - N/A   Clear
7:55 PM 64.4 °F 37.4 °F 37% 30.11 in 6.2 mi Variable 5.8 mph - N/A   Clear
8:55 PM 62.6 °F 37.4 °F 39% 30.13 in 6.2 mi NNW 5.8 mph - N/A   Clear
9:55 PM 60.8 °F 37.4 °F 42% 30.14 in 6.2 mi North 4.6 mph - N/A   Clear
10:55 PM 59.0 °F 39.2 °F 48% 30.15 in 6.2 mi NNW 3.5 mph - N/A   Clear
11:55 PM 57.2 °F 39.2 °F 51% 30.16 in 6.2 mi North 10.4 mph - N/A   Clear